Bedford, MA

7:47 AM EST on November 19, 2017 (GMT -0500)
Hanscom

Weather History for KBED - March, 2013

Change the Weather History Date:

Thursday, March 28, 2013

  Actual Average Record
Temperature  
Mean Temperature 40 °F -  
Max Temperature 48 °F 53 °F 89 °F (1998)
Min Temperature 35 °F 30 °F 15 °F (1982)
Degree Days  
Heating Degree Days 24    
Moisture  
Dew Point 31 °F    
Average Humidity 73    
Maximum Humidity 93    
Minimum Humidity 46    
Precipitation  
Precipitation 0.00 in - - ()
Sea Level Pressure  
Sea Level Pressure 29.96 in    
Wind  
Wind Speed 7 mph (NW)    
Max Wind Speed 13 mph    
Max Gust Speed -    
Visibility 10 miles    
Events Rain    
Averages and records for this station are not official NWS values.
T = Trace of Precipitation, MM = Missing Value Source: NWS Daily Summary

Daily Weather History Graph

Daily Weather History Graph

Search for Another Location

Airport or City:

Trip Planner

Search our weather history database for the weather conditions in past years. The results will help you decide how hot, cold, wet, or windy it might be!

Date:

Astronomy

Mar. 28, 2013 Rise Set
Actual Time 6:34 AM EDT 7:06 PM EDT
Civil Twilight 6:05 AM EDT 7:35 PM EDT
Nautical Twilight 5:32 AM EDT 8:08 PM EDT
Astronomical Twilight 4:58 AM EDT 8:43 PM EDT
Moon 8:58 PM EDT (3/28) 6:57 AM EDT (3/28)
Length of Visible Light 13h 29m
Length of Day
12h 32m
Full, 98% of the Moon is Illuminated
Mar 28
Full
Apr 3
Last Quarter
Apr 10
New
Apr 18
First Quarter
Apr 25
Full

Hourly Weather History & Observations

Time (EDT) Temp. Windchill Dew Point Humidity Pressure Visibility Wind Dir Wind Speed Gust Speed Precip Events Conditions
12:56 AM 37.9 °F 30.0 °F 30.9 °F 76% 29.91 in 10.0 mi NNW 12.7 mph - N/A   Overcast
1:56 AM 37.0 °F 31.0 °F 32.0 °F 82% 29.91 in 10.0 mi NW 8.1 mph - 0.00 in Rain Light Rain
2:10 AM 37.4 °F 30.8 °F 32.0 °F 81% 29.87 in 10.0 mi NNW 9.2 mph - 0.00 in   Overcast
2:56 AM 37.0 °F 30.4 °F 33.1 °F 86% 29.91 in 10.0 mi NNW 9.2 mph - 0.00 in Rain Light Rain
3:15 AM 35.6 °F 29.2 °F 33.8 °F 93% 29.87 in 10.0 mi NNW 8.1 mph - 0.00 in Rain Light Rain
3:56 AM 36.0 °F 30.3 °F 33.1 °F 89% 29.92 in 10.0 mi NNW 6.9 mph - 0.00 in Rain Light Rain
4:15 AM 35.6 °F 31.7 °F 33.8 °F 93% 29.87 in 10.0 mi NNW 4.6 mph - 0.00 in   Overcast
4:42 AM 35.6 °F 31.7 °F 33.8 °F 93% 29.87 in 10.0 mi WNW 4.6 mph - 0.00 in   Overcast
4:56 AM 36.0 °F 30.3 °F 33.1 °F 89% 29.92 in 10.0 mi NW 6.9 mph - 0.00 in   Overcast
5:56 AM 35.1 °F 30.1 °F 32.0 °F 89% 29.93 in 10.0 mi NW 5.8 mph - N/A   Overcast
6:56 AM 36.0 °F 29.6 °F 33.1 °F 89% 29.95 in 10.0 mi NW 8.1 mph - N/A   Overcast
7:56 AM 37.0 °F 31.6 °F 33.1 °F 86% 29.96 in 10.0 mi NNW 6.9 mph - N/A   Overcast
8:56 AM 39.9 °F 34.5 °F 33.1 °F 77% 29.97 in 10.0 mi North 8.1 mph - N/A   Mostly Cloudy
9:56 AM 43.0 °F 37.2 °F 30.9 °F 62% 29.98 in 10.0 mi NNW 10.4 mph - N/A   Overcast
10:56 AM 45.0 °F 40.1 °F 30.0 °F 56% 29.99 in 10.0 mi North 9.2 mph - N/A   Overcast
11:56 AM 46.0 °F 43.9 °F 27.0 °F 47% 29.98 in 10.0 mi Variable 4.6 mph - N/A   Overcast
12:56 PM 46.9 °F - 28.0 °F 48% 29.98 in 10.0 mi NW 8.1 mph - N/A   Mostly Cloudy
1:56 PM 46.0 °F 42.5 °F 26.1 °F 46% 29.97 in 10.0 mi North 6.9 mph - N/A   Overcast
2:56 PM 46.0 °F 43.1 °F 27.0 °F 47% 29.97 in 10.0 mi NNW 5.8 mph - N/A   Overcast
3:56 PM 46.0 °F - 28.9 °F 51% 29.98 in 10.0 mi Calm Calm - 0.00 in   Mostly Cloudy
4:56 PM 43.0 °F 38.8 °F 33.1 °F 68% 29.99 in 10.0 mi NE 6.9 mph - 0.00 in Rain Light Rain
5:56 PM 43.0 °F - 33.1 °F 68% 30.01 in 10.0 mi Calm Calm - 0.00 in   Overcast
6:56 PM 43.0 °F - 32.0 °F 65% 30.02 in 10.0 mi Calm Calm - N/A   Mostly Cloudy
7:56 PM 41.0 °F 39.0 °F 32.0 °F 70% 30.03 in 10.0 mi WSW 3.5 mph - N/A   Overcast
8:56 PM 41.0 °F - 32.0 °F 70% 30.04 in 10.0 mi Calm Calm - N/A   Overcast
9:56 PM 39.9 °F 36.7 °F 32.0 °F 73% 30.05 in 10.0 mi WSW 4.6 mph - N/A   Overcast
10:56 PM 39.0 °F 35.7 °F 30.9 °F 73% 30.05 in 10.0 mi West 4.6 mph - N/A   Overcast
11:56 PM 39.0 °F 36.8 °F 30.9 °F 73% 30.05 in 10.0 mi WSW 3.5 mph - N/A   Overcast